Location: Churchill Northern Studies Centre
(58.7378°N, 93.8201°W)
Time: 15:43:56
(UTC-05:00)

N. Korean satellite - Pass Details

Date: 13 October 2017
Orbit: 459 x 517 km, 97.2° (Epoch: 23 October)

Event Time Altitude Azimuth Distance (km) Brightness Sun altitude
Rises 20:25:51 0° 214° (SW) 2,539 10.5 -17.8°
Reaches altitude 10° 20:28:48 10° 242° (WSW) 1,653 9.9 -18.2°
Maximum altitude 20:30:39 14° 273° (W) 1,439 10.0 -18.4°
Drops below altitude 10° 20:32:30 10° 305° (NW) 1,646 10.3 -18.7°
Sets 20:35:26 0° 333° (NNW) 2,519 10.9 -19.0°
